Content
SEND FEEDBACK

Daily
Averages
Monthly
Summary
Netherlands

MAASTRICHT, NETHERLANDS


Home > Europe > Netherlands
Elevation: 380 feet     Latitude: 50 55N     Longitude: 005 47E

WEATHER
 
SELECT A DAY
Number of Records: 300,860;   Date Range: 7/1/96 - 7/9/14
 
SHARE

PRINT THIS DATA

[ ← Previous Day ]
WEATHER ALMANAC - JANUARY 16, 2013
[ Next Day → ]
[ °C ]   °F
Weather ElementAverageHighLow
Temperature23.4 °F25 °F (1:00 am)21 °F (10:00 am)
Dewpoint21.7 °F23 °F (12:55 am)19 °F (10:00 am)
Humidity92.9 %100 % (4:55 am)86 % (6:55 am)
Barometer29.84 in29.97 in (10:00 pm)29.77 in (12:55 am)
Wind Speed5.6 mph9.2 mph (1:25 am)
Weather ElementAverage
Visibility2.1 mi
Wind DirectionWNW (304.2 °)

Weather ElementTotal
Precipitation---
Heating Degree Days42 (Base 65)
Averaged from 55 records on January 16, 2013
WEATHER CONDITIONS BREAKOUT
WIND DIRECTION BREAKOUT
WEATHER BY HOUR - JANUARY 16, 2013
[ °C ]   °F
Local TimeTemperatureDewpointHumidityBarometerVisibilityWind DirectionWind SpeedGust SpeedPrecipitationEventsConditions
12:55 AM24.8 °F23.0 °F93 %29.77 in2.2 miNNW (330°)8.1 mphSnowLight Snow Grains
1:00 AM25.0 °F23.0 °F88 %29.80 in2.0 miNNW (330°)8.9 mphSnowSnow Grains
1:25 AM24.8 °F23.0 °F93 %29.77 inNNW (330°)9.2 mphSnowLight Snow Grains
1:55 AM24.8 °F23.0 °F93 %29.77 in2.2 miNNW (340°)8.1 mphSnowLight Snow
2:25 AM24.8 °F23.0 °F93 %29.77 in1.7 miNNW (330°)6.9 mphSnowLight Snow
2:55 AM24.8 °F23.0 °F93 %29.77 inNNW (330°)8.1 mphSnowLight Snow
3:25 AM24.8 °F23.0 °F93 %29.77 inNNW (340°)8.1 mphSnowLight Snow
3:55 AM24.8 °F23.0 °F93 %29.77 in2.2 miNNW (330°)9.2 mphSnowLight Snow
4:00 AM24.0 °F23.0 °F92 %29.81 in3.0 miNNW (330°)8.9 mphSnowLight Snow
4:25 AM24.8 °F23.0 °F93 %29.77 in1.4 miNNW (340°)8.1 mphSnowLight Snow
4:55 AM23.0 °F23.0 °F100 %29.77 in1.5 miNNW (340°)8.1 mphSnowLight Snow
5:25 AM23.0 °F23.0 °F100 %29.77 in1.4 miNorth (350°)8.1 mphSnowLight Snow
5:55 AM23.0 °F21.2 °F93 %29.77 in1.7 miNNW (340°)5.8 mphSnowLight Snow
6:25 AM23.0 °F21.2 °F93 %29.77 in1.5 miNNW (340°)5.8 mphSnowLight Snow
6:55 AM23.0 °F19.4 °F86 %29.77 in4.3 miNNW (330°)6.9 mphMostly Cloudy
7:00 AM22.0 °F20.0 °F88 %29.81 in2.0 miNNW (340°)6.7 mphRainDrizzle
7:25 AM23.0 °F19.4 °F86 %29.77 in5.0 miNorth (350°)5.8 mphMostly Cloudy
7:55 AM21.2 °F19.4 °F93 %29.77 in4.3 miNNW (340°)4.6 mphOvercast
8:25 AM21.2 °F19.4 °F93 %29.80 in4.3 miNW (320°)3.5 mphOvercast
8:55 AM21.2 °F19.4 °F93 %29.80 in4.3 miNW (320°)3.5 mphOvercast
9:25 AM21.2 °F19.4 °F93 %29.80 inNW (320°)4.6 mphSnowLight Snow
9:55 AM21.2 °F19.4 °F93 %29.80 in3.1 miNNW (330°)4.6 mphSnowLight Snow
10:00 AM21.0 °F19.0 °F89 %29.86 in3.0 miNNW (330°)4.5 mphSnowLight Snow Showers
10:25 AM21.2 °F19.4 °F93 %29.80 in3.1 miNNW (330°)4.6 mphSnowLight Snow
10:55 AM21.2 °F19.4 °F93 %29.83 in3.1 miNNW (330°)3.5 mphMostly Cloudy
11:25 AM21.2 °F19.4 °F93 %29.83 inNNW (330°)3.5 mphPartly Cloudy
11:55 AM23.0 °F19.4 °F86 %29.83 inNNW (340°)3.5 mphPartly Cloudy
12:25 PM23.0 °F21.2 °F93 %29.83 inNNW (340°)4.6 mphPartly Cloudy
12:55 PM23.0 °F21.2 °F93 %29.83 inNNW (330°)4.6 mphOvercast
1:00 PM23.0 °F21.0 °F89 %29.86 in2.0 miNNW (330°)4.5 mphN Precipitation
1:25 PM23.0 °F21.2 °F93 %29.83 in1.7 miNNW (340°)4.6 mphOvercast
1:55 PM23.0 °F21.2 °F93 %29.83 in1.6 miVariable2.3 mphOvercast
2:25 PM23.0 °F21.2 °F93 %29.80 in1.6 miNorth (360°)4.6 mphOvercast
2:55 PM23.0 °F21.2 °F93 %29.83 inNorth (360°)4.6 mphMostly Cloudy
3:25 PM23.0 °F21.2 °F93 %29.83 in1.7 miNorth (350°)3.5 mphOvercast
3:55 PM23.0 °F21.2 °F93 %29.83 in1.7 miNorth (360°)4.6 mphOvercast
4:00 PM23.0 °F22.0 °F92 %29.89 in1.0 miNNW (340°)4.5 mphMist
4:25 PM23.0 °F21.2 °F93 %29.86 in1.4 miNW (320°)5.8 mphOvercast
4:55 PM23.0 °F21.2 °F93 %29.86 in1.4 miNNW (330°)4.6 mphOvercast
5:25 PM23.0 °F23.0 °F100 %29.86 in1.5 miNNW (330°)5.8 mphOvercast
5:55 PM23.0 °F23.0 °F100 %29.89 in1.7 miNorth (350°)4.6 mphOvercast
6:25 PM23.0 °F23.0 °F100 %29.89 in1.7 miNorth (360°)4.6 mphOvercast
6:55 PM24.8 °F23.0 °F93 %29.89 in1.7 miNorth (360°)4.6 mphOvercast
7:00 PM24.0 °F22.0 °F90 %29.94 in2.0 miNorth (10°)4.5 mphMist
7:25 PM24.8 °F23.0 °F93 %29.89 in1.7 miNorth (350°)4.6 mphOvercast
7:55 PM24.8 °F23.0 °F93 %29.89 in1.5 miNNW (340°)4.6 mphOvercast
8:25 PM24.8 °F23.0 °F93 %29.92 in1.4 miNorth (360°)6.9 mphOvercast
8:55 PM24.8 °F23.0 °F93 %29.92 in1.5 miNorth (360°)4.6 mphOvercast
9:25 PM24.8 °F23.0 °F93 %29.92 in1.4 miNorth (350°)4.6 mphOvercast
9:55 PM24.8 °F23.0 °F93 %29.92 in1.5 miNorth (360°)4.6 mphOvercast
10:00 PM24.0 °F23.0 °F95 %29.97 in1.0 miNorth (10°)6.7 mphMist
10:25 PM24.8 °F23.0 °F93 %29.92 in1.4 miNNE (20°)6.9 mphOvercast
10:55 PM24.8 °F23.0 °F93 %29.92 in1.5 miNNE (30°)6.9 mphOvercast
11:25 PM24.8 °F23.0 °F93 %29.95 in1.6 miNorth (10°)4.6 mphOvercast
11:55 PM24.8 °F23.0 °F93 %29.95 in1.6 miNorth (360°)3.5 mphOvercast
Hourly data recorded from EHBK, located miles away from Maastricht, Netherlands







STORIES FROM OUR PARTNERS